Weather History for CYYT - January, 2014

Change the Weather History Date:

Friday, January 17, 2014

  Actual Average Record
Temperature  
Mean Temperature 42 °F -  
Max Temperature 54 °F 30 °F 54 °F (2014)
Min Temperature 30 °F 17 °F 5 °F (2007)
Degree Days  
Heating Degree Days 23    
Moisture  
Dew Point 40 °F    
Average Humidity 98    
Maximum Humidity 100    
Minimum Humidity 93    
Precipitation  
Precipitation 0.55 in 0.18 in - ()
Sea Level Pressure  
Sea Level Pressure 29.88 in    
Wind  
Wind Speed 15 mph ()    
Max Wind Speed 31 mph    
Max Gust Speed 45 mph    
Visibility 5.2 miles    
Events Fog , Rain    
Averages and records for this station are not official NWS values.
T = Trace of Precipitation, MM = Missing Value Source: Averaged Metar Reports

Daily Weather History Graph

Daily Weather History Graph

Search for Another Location

Airport or City:

Trip Planner

Search our weather history database for the weather conditions in past years. The results will help you decide how hot, cold, wet, or windy it might be!

Date:

Astronomy

Jan. 17, 2014 Rise Set
Actual Time 7:43 AM NST 4:39 PM NST
Civil Twilight 7:08 AM NST 5:14 PM NST
Nautical Twilight 6:30 AM NST 5:52 PM NST
Astronomical Twilight 5:53 AM NST 6:28 PM NST
Moon 6:30 PM NST (1/17) 7:58 AM NST (1/17)
Length of Visible Light 10h 05m
Length of Day
8h 56m
Full, 98% of the Moon is Illuminated
Jan 17
Full
Jan 24
Last Quarter
Jan 30
New
Feb 6
First Quarter
Feb 14
Full

Hourly Weather History & Observations

Time (NST) Temp. Windchill Dew Point Humidity Pressure Visibility Wind Dir Wind Speed Gust Speed Precip Events Conditions
12:30 AM 39.2 °F 30.5 °F 39.2 °F 100% 29.95 in 0.4 mi South 16.1 mph 25.3 mph N/A Fog , Rain Light Rain
12:46 AM 41.0 °F 32.8 °F 41.0 °F 100% 29.93 in 0.5 mi SSE 16.1 mph - N/A Fog , Rain Light Rain
1:30 AM 41.0 °F 35.8 °F 41.0 °F 100% 29.90 in 0.4 mi SSE 8.1 mph - N/A Fog , Rain Light Rain
2:02 AM 39.2 °F 33.6 °F 39.2 °F 100% 29.87 in 0.5 mi South 8.1 mph - N/A Fog , Rain Light Rain
2:14 AM 41.0 °F 36.4 °F 41.0 °F 100% 29.85 in 3.0 mi South 6.9 mph - N/A Rain Light Rain
2:30 AM 44 °F - 44 °F 100% 29.85 in 6 mi SSW 15.0 mph - - Rain Light Rain
2:30 AM 44.6 °F 36.9 °F 44.6 °F 100% 29.85 in 6.0 mi SSW 18.4 mph - N/A Rain Light Rain
2:51 AM 44.6 °F 37.2 °F 44.6 °F 100% 29.84 in 2.0 mi SSW 17.3 mph 23.0 mph N/A Rain Rain
3:08 AM 46.4 °F 40.1 °F 46.4 °F 100% 29.82 in 10.0 mi SW 15.0 mph - N/A Rain Rain
3:30 AM 48.2 °F - 48.2 °F 100% 29.81 in 12.0 mi SW 17.3 mph 24.2 mph N/A Rain Light Rain
4:04 AM 50.0 °F - 50.0 °F 100% 29.79 in 8.0 mi SW 16.1 mph 28.8 mph N/A Rain Light Rain
4:30 AM 51.8 °F - 51.8 °F 100% 29.78 in 4.0 mi SW 19.6 mph 29.9 mph N/A Rain Light Rain
4:47 AM 53.6 °F - 51.8 °F 94% 29.79 in 2.0 mi SW 20.7 mph 28.8 mph N/A Rain Light Rain
5:30 AM 50.0 °F - 50.0 °F 100% 29.78 in 8.0 mi WSW 23.0 mph 29.9 mph N/A Rain Rain
6:02 AM 53.6 °F - 51.8 °F 94% 29.75 in 12.0 mi SW 27.6 mph 42.6 mph N/A Rain Rain
6:14 AM 53.6 °F - 51.8 °F 94% 29.75 in 15.0 mi WSW 21.9 mph 38.0 mph N/A Rain Light Rain
6:30 AM 53.6 °F - 51.8 °F 94% 29.75 in 15.0 mi WSW 28.8 mph 34.5 mph N/A Rain Light Rain
7:30 AM 51.8 °F - 50.0 °F 94% 29.74 in 12.0 mi WSW 27.6 mph 36.8 mph N/A   Light Drizzle
8:30 AM 49 °F - 48 °F 93% 29.74 in 15 mi WSW 31.1 mph - - Rain Light Drizzle
8:30 AM 50.0 °F - 48.2 °F 94% 29.73 in 15.0 mi WSW 31.1 mph 44.9 mph N/A   Light Drizzle
9:30 AM 48.2 °F - 46.4 °F 93% 29.76 in 12.0 mi WSW 31.1 mph 40.3 mph N/A   Light Drizzle
10:14 AM 46.4 °F 38.1 °F 44.6 °F 93% 29.77 in 12.0 mi West 24.2 mph 34.5 mph N/A   Overcast
10:30 AM 44.6 °F 36.1 °F 44.6 °F 100% 29.79 in 2.0 mi West 21.9 mph 29.9 mph N/A   Overcast
10:58 AM 44.6 °F 35.9 °F 42.8 °F 93% 29.81 in 0.8 mi West 23.0 mph 31.1 mph N/A   Light Drizzle
11:30 AM 42.8 °F 34.8 °F 41.0 °F 93% 29.83 in 0.8 mi WNW 17.3 mph 23.0 mph N/A   Light Drizzle
12:06 PM 35.6 °F 24.5 °F 35.6 °F 100% 29.86 in 15.0 mi NW 20.7 mph - N/A   Light Drizzle
12:30 PM 35.6 °F 25.9 °F 35.6 °F 100% 29.87 in 15.0 mi NNW 16.1 mph 25.3 mph N/A   Light Drizzle
1:01 PM 35.6 °F 24.8 °F 33.8 °F 93% 29.88 in 15.0 mi NW 19.6 mph - N/A   Overcast
1:30 PM 33.8 °F 23.2 °F 32.0 °F 93% 29.89 in 0.5 mi NW 17.3 mph 25.3 mph N/A Fog Fog
2:30 PM 32 °F - 32 °F 98% 29.92 in 0 mi NNW 15.0 mph - - Fog Heavy Fog
2:30 PM 32.0 °F 22.5 °F 32.0 °F 100% 29.92 in 0.5 mi North 12.7 mph 21.9 mph N/A Fog Fog
3:10 PM 32.0 °F 22.1 °F 32.0 °F 100% 29.95 in 0.2 mi North 13.8 mph 20.7 mph N/A Fog Light Freezing Fog
3:30 PM 32.0 °F 22.1 °F 32.0 °F 100% 29.95 in 0.2 mi North 13.8 mph - N/A Fog Light Freezing Fog
4:30 PM 32.0 °F 23.0 °F 32.0 °F 100% 29.97 in 0.2 mi North 11.5 mph 18.4 mph N/A Fog Light Freezing Fog
5:30 PM 32.0 °F 24.2 °F 32.0 °F 100% 30.00 in 0.2 mi North 9.2 mph - N/A Fog Light Freezing Fog
5:51 PM 32.0 °F 24.2 °F 32.0 °F 100% 30.01 in 0.2 mi North 9.2 mph - N/A Fog Light Freezing Drizzle
6:30 PM 32.0 °F 23.0 °F 30.2 °F 93% 30.00 in 0.2 mi North 11.5 mph - N/A Fog Light Freezing Drizzle
7:30 PM 32.0 °F 24.8 °F 30.2 °F 93% 30.02 in 0.4 mi NNE 8.1 mph - N/A Fog Light Freezing Drizzle
8:30 PM 31 °F - 31 °F 97% 30.02 in 0 mi North 9.2 mph - - Rain Light Freezing Drizzle
8:30 PM 30.2 °F 22.6 °F 30.2 °F 100% 30.02 in 0.4 mi North 8.1 mph - N/A Fog Light Freezing Drizzle
9:30 PM 30.2 °F 23.4 °F 30.2 °F 100% 30.04 in 0.4 mi NNE 6.9 mph - N/A Fog Light Freezing Drizzle
10:30 PM 30.2 °F 23.4 °F 30.2 °F 100% 30.04 in 0.4 mi North 6.9 mph - N/A Fog Light Freezing Drizzle
11:30 PM 30.2 °F 22.6 °F 30.2 °F 100% 30.04 in 0.5 mi North 8.1 mph - N/A Fog Light Freezing Drizzle